Torna al catalogo

SL-16 DEB

AttivoLEO
NORAD 22493·DEBRIS·🇷🇺 Russia

Lanciato Dec 25, 1992 da Baikonur Cosmodrome

Loading…

Prossimi Passaggi (prossime 24 ore)

TLE

AggiornatoSource: Space-Track

Epoca: Sep 13, 2026, 18:02 UTC

1 22493U 92093GC  26256.75143751  .00000710  00000-0  17202-3 0  9990
2 22493  71.0391  17.7858 0093231  31.2138 329.4494 14.54032221783899

Traccia SL-16 DEB in tempo reale con AllMySat

Download on the App Store